When you browse on this site, cookies collect data to enhance your experience and personalize the content and advertising you see.
Visit our Privacy Policy to learn more. By continuing to use the site, you agree to this use of cookies and data.
  • In Germany
  • List of Countries
  • For 7 days
  • Water Temperature
  • Satellite Maps
  • Weather Map
  • Weather Widgets
  • user-avatar
    Login

    Hourly Weather Solden

    Today, 18 January, Friday

    Time Temperature Precipitation Wind Pressure Humidity
    00:00 -9°C° 0.4 mm 2 mps 574 mmHg 88%
    01:00 -9°C° 0 mm 2 mps 574 mmHg 85%
    02:00 -10°C° 0.1 mm 2 mps 574 mmHg 84%
    03:00 -10°C° 0.1 mm 2 mps 573 mmHg 82%
    04:00 -13°C° 0.1 mm 3 mps 573 mmHg 81%
    05:00 -14°C° 0 mm 3 mps 573 mmHg 79%
    06:00 -15°C° 0 mm 3 mps 573 mmHg 77%
    07:00 -16°C° 0 mm 3 mps 573 mmHg 74%
    08:00 -15°C° 0 mm 3 mps 573 mmHg 72%
    09:00 -14°C° 0 mm 3 mps 574 mmHg 70%
    10:00 -13°C° 0 mm 3 mps 575 mmHg 68%
    11:00 -10°C° 0 mm 2 mps 576 mmHg 65%
    12:00 -9°C° 0 mm 2 mps 576 mmHg 62%
    13:00 -8°C° 0 mm 2 mps 577 mmHg 58%
    14:00 -8°C° 0 mm 1 mps 577 mmHg 62%
    15:00 -8°C° 0 mm 1 mps 577 mmHg 65%
    16:00 -9°C° 0 mm 1 mps 576 mmHg 68%
    17:00 -10°C° 0 mm 1 mps 576 mmHg 70%
    18:00 -12°C° 0 mm 1 mps 575 mmHg 72%
    19:00 -13°C° 0 mm 1 mps 575 mmHg 74%
    20:00 -14°C° 0 mm 1 mps 575 mmHg 73%
    21:00 -14°C° 0 mm 1 mps 575 mmHg 71%
    22:00 -14°C° 0 mm 1 mps 575 mmHg 70%
    23:00 -14°C° 0 mm 1 mps 575 mmHg 68%

    Tomorrow, 19 January, Saturday

    Time Temperature Precipitation Wind Pressure Humidity
    00:00 -14°C° 0 mm 1 mps 575 mmHg 66%
    01:00 -14°C° 0 mm 1 mps 575 mmHg 63%
    02:00 -14°C° 0 mm 1 mps 575 mmHg 64%
    03:00 -14°C° 0 mm 1 mps 574 mmHg 65%
    04:00 -14°C° 0 mm 1 mps 574 mmHg 66%
    05:00 -14°C° 0 mm 1 mps 574 mmHg 68%
    06:00 -14°C° 0 mm 1 mps 574 mmHg 69%
    07:00 -14°C° 0 mm 1 mps 574 mmHg 70%
    08:00 -12°C° 0 mm 1 mps 575 mmHg 69%
    09:00 -11°C° 0 mm 0 mps 575 mmHg 68%
    10:00 -10°C° 0 mm 0 mps 576 mmHg 66%
    11:00 -9°C° 0 mm 1 mps 576 mmHg 65%
    12:00 -8°C° 0 mm 1 mps 576 mmHg 65%
    13:00 -7°C° 0 mm 1 mps 576 mmHg 64%
    14:00 -8°C° 0 mm 1 mps 576 mmHg 67%
    15:00 -8°C° 0 mm 1 mps 575 mmHg 70%
    16:00 -9°C° 0 mm 1 mps 575 mmHg 73%
    17:00 -10°C° 0.1 mm 0 mps 574 mmHg 75%
    18:00 -11°C° 0.1 mm 0 mps 574 mmHg 78%
    19:00 -12°C° 0.1 mm 0 mps 574 mmHg 80%
    20:00 -12°C° 0 mm 0 mps 573 mmHg 80%
    21:00 -12°C° 0 mm 0 mps 573 mmHg 80%
    22:00 -13°C° 0 mm 1 mps 573 mmHg 80%
    23:00 -13°C° 0 mm 1 mps 573 mmHg 79%

    Day after tomorrow, 20 January, Sunday

    Time Temperature Precipitation Wind Pressure Humidity
    00:00 -14°C° 0 mm 1 mps 573 mmHg 79%
    01:00 -14°C° 0 mm 1 mps 573 mmHg 78%
    02:00 -14°C° 0 mm 1 mps 572 mmHg 77%
    03:00 -14°C° 0 mm 1 mps 572 mmHg 75%
    04:00 -14°C° 0 mm 1 mps 572 mmHg 74%
    05:00 -14°C° 0 mm 1 mps 572 mmHg 73%
    06:00 -14°C° 0 mm 1 mps 572 mmHg 73%
    07:00 -14°C° 0 mm 1 mps 572 mmHg 72%
    08:00 -13°C° 0 mm 1 mps 573 mmHg 69%
    09:00 -12°C° 0 mm 1 mps 574 mmHg 67%
    10:00 -10°C° 0 mm 1 mps 575 mmHg 65%
    11:00 -9°C° 0 mm 1 mps 575 mmHg 61%
    12:00 -8°C° 0 mm 0 mps 575 mmHg 57%
    13:00 -7°C° 0 mm 0 mps 576 mmHg 54%
    14:00 -7°C° 0 mm 0 mps 576 mmHg 57%
    15:00 -8°C° 0 mm 0 mps 575 mmHg 60%
    16:00 -8°C° 0 mm 0 mps 575 mmHg 64%
    17:00 -9°C° 0 mm 0 mps 575 mmHg 66%
    18:00 -10°C° 0 mm 1 mps 575 mmHg 69%
    19:00 -11°C° 0 mm 1 mps 575 mmHg 71%
    20:00 -11°C° 0 mm 1 mps 575 mmHg 72%
    21:00 -11°C° 0 mm 1 mps 575 mmHg 73%
    22:00 -12°C° 0 mm 1 mps 576 mmHg 74%
    23:00 -12°C° 0 mm 1 mps 576 mmHg 75%

    21 January, Monday

    Time Temperature Precipitation Wind Pressure Humidity
    00:00 -12°C° 0 mm 1 mps 576 mmHg 76%
    01:00 -12°C° 0 mm 1 mps 576 mmHg 76%
    02:00 -13°C° 0 mm 1 mps 576 mmHg 76%
    03:00 -13°C° 0 mm 1 mps 575 mmHg 76%
    04:00 -13°C° 0 mm 1 mps 575 mmHg 77%
    05:00 -13°C° 0 mm 1 mps 575 mmHg 76%
    06:00 -13°C° 0 mm 1 mps 575 mmHg 76%
    07:00 -14°C° 0 mm 1 mps 576 mmHg 76%
    08:00 -12°C° 0 mm 1 mps 576 mmHg 73%
    09:00 -11°C° 0 mm 1 mps 577 mmHg 70%
    10:00 -10°C° 0 mm 1 mps 578 mmHg 67%
    11:00 -9°C° 0 mm 1 mps 578 mmHg 64%
    12:00 -8°C° 0 mm 1 mps 578 mmHg 61%
    13:00 -7°C° 0 mm 1 mps 579 mmHg 58%
    14:00 -7°C° 0 mm 0 mps 578 mmHg 61%
    15:00 -8°C° 0 mm 0 mps 578 mmHg 64%
    16:00 -8°C° 0 mm 0 mps 578 mmHg 67%
    17:00 -10°C° 0 mm 1 mps 577 mmHg 70%
    18:00 -11°C° 0 mm 1 mps 577 mmHg 72%
    19:00 -13°C° 0 mm 1 mps 576 mmHg 75%
    20:00 -13°C° 0 mm 1 mps 576 mmHg 75%
    21:00 -14°C° 0 mm 1 mps 576 mmHg 75%
    22:00 -14°C° 0 mm 1 mps 576 mmHg 75%
    23:00 -14°C° 0 mm 1 mps 576 mmHg 73%

    22 January, Tuesday

    Time Temperature Precipitation Wind Pressure Humidity
    00:00 -15°C° 0 mm 1 mps 575 mmHg 72%
    01:00 -15°C° 0 mm 1 mps 575 mmHg 70%
    02:00 -15°C° 0 mm 1 mps 575 mmHg 67%
    03:00 -17°C° 0 mm 2 mps 574 mmHg 63%
    04:00 -17°C° 0 mm 2 mps 574 mmHg 60%
    05:00 -18°C° 0 mm 2 mps 573 mmHg 57%
    06:00 -16°C° 0 mm 1 mps 572 mmHg 54%
    07:00 -16°C° 0 mm 1 mps 572 mmHg 51%
    08:00 -14°C° 0 mm 1 mps 572 mmHg 50%
    09:00 -13°C° 0 mm 1 mps 573 mmHg 49%
    10:00 -11°C° 0 mm 1 mps 573 mmHg 47%
    11:00 -10°C° 0 mm 1 mps 573 mmHg 46%
    12:00 -9°C° 0 mm 1 mps 573 mmHg 44%
    13:00 -7°C° 0 mm 1 mps 572 mmHg 43%
    14:00 -8°C° 0 mm 1 mps 571 mmHg 47%
    15:00 -9°C° 0 mm 1 mps 570 mmHg 51%
    16:00 -10°C° 0 mm 1 mps 569 mmHg 55%
    17:00 -12°C° 0 mm 1 mps 568 mmHg 57%
    18:00 -14°C° 0 mm 1 mps 567 mmHg 60%
    19:00 -15°C° 0 mm 1 mps 566 mmHg 62%
    20:00 -15°C° 0 mm 1 mps 565 mmHg 63%
    21:00 -15°C° 0 mm 1 mps 565 mmHg 64%
    22:00 -16°C° 0 mm 1 mps 565 mmHg 66%
    23:00 -15°C° 0 mm 1 mps 564 mmHg 67%

    23 January, Wednesday

    Time Temperature Precipitation Wind Pressure Humidity
    00:00 -15°C° 0 mm 1 mps 564 mmHg 68%
    01:00 -15°C° 0 mm 1 mps 564 mmHg 70%
    02:00 -15°C° 0 mm 1 mps 563 mmHg 71%
    03:00 -15°C° 0 mm 1 mps 563 mmHg 73%
    04:00 -15°C° 0 mm 1 mps 562 mmHg 74%
    05:00 -14°C° 0.1 mm 1 mps 562 mmHg 75%
    06:00 -14°C° 0.1 mm 1 mps 561 mmHg 77%
    07:00 -14°C° 0.1 mm 1 mps 561 mmHg 78%
    08:00 -16°C° 0.4 mm 2 mps 560 mmHg 80%
    09:00 -16°C° 0.4 mm 2 mps 560 mmHg 82%
    10:00 -16°C° 0.4 mm 2 mps 560 mmHg 84%
    11:00 -15°C° 0.6 mm 2 mps 559 mmHg 84%
    12:00 -15°C° 0.6 mm 2 mps 559 mmHg 84%
    13:00 -15°C° 0.6 mm 2 mps 559 mmHg 84%
    14:00 -15°C° 0.4 mm 2 mps 559 mmHg 84%
    15:00 -14°C° 0.4 mm 2 mps 558 mmHg 84%
    16:00 -14°C° 0.4 mm 2 mps 558 mmHg 85%
    17:00 -15°C° 0.3 mm 2 mps 558 mmHg 85%
    18:00 -15°C° 0.3 mm 2 mps 558 mmHg 86%
    19:00 -16°C° 0.3 mm 2 mps 558 mmHg 86%
    20:00 -16°C° 0.1 mm 2 mps 558 mmHg 85%
    21:00 -16°C° 0.1 mm 2 mps 558 mmHg 83%
    22:00 -17°C° 0.1 mm 2 mps 558 mmHg 82%
    23:00 -17°C° 0.2 mm 2 mps 558 mmHg 81%
    Show more